This demonstration page uses our WeatherBlox Daily Observations layout. Learn more.

Left ArrowRight Arrow

39.08367, -84.50855

Hourly Observations for June 24, 2021

Temp ( °F °C ) Dew Point ( °F °C ) Humidity (%) Winds ( mph kmh ) Pressure ( in mb ) Visibility ( mi km ) Precip ( " mm )
12:53 am 00:53 Clear 57 13.9 53 11.7 87 87 N N/A 30.15 1021 10 16 N/A
1:53 am 01:53 Clear 55 12.8 53 11.7 93 93 NE 5 7 30.16 1022 10 16 N/A
2:53 am 02:53 Clear 55 12.8 53 11.7 93 93 N N/A 30.16 1021 10 16 N/A
3:53 am 03:53 Clear 55 12.8 53 11.7 93 93 N N/A 30.16 1021 10 16 N/A
4:53 am 04:53 Clear 54 12.2 52 11.1 93 93 N N/A 30.16 1021 10 16 N/A
5:53 am 05:53 Clear 54 12.2 52 11.1 93 93 N N/A 30.16 1021 10 16 N/A
6:53 am 06:53 Sunny 55 12.8 53 11.7 93 93 N N/A 30.16 1022 10 16 N/A
7:53 am 07:53 Sunny 61 16.1 58 14.4 90 90 N N/A 30.16 1022 10 16 N/A
8:53 am 08:53 Sunny 66 18.9 56 13.3 70 70 S 8 13 30.16 1022 10 16 N/A
9:53 am 09:53 Sunny 71 21.7 58 14.4 63 63 N N/A 30.18 1022 10 16 N/A
10:53 am 10:53 Sunny 76 24.4 61 16.1 60 60 S 7 11 30.16 1022 10 16 N/A
11:53 am 11:53 Sunny 79 26.1 64 17.8 60 60 S 12 19 30.15 1021 10 16 N/A
12:53 pm 12:53 Mostly Sunny 82 27.8 65 18.3 56 56 S 17 28 30.13 1020 10 16 N/A
1:53 pm 13:53 Mostly Sunny 83 28.3 64 17.8 53 53 S 16 26 30.12 1020 10 16 N/A
2:53 pm 14:53 Partly Cloudy 83 28.3 64 17.8 53 53 SSW 15 24 30.12 1020 10 16 N/A
3:53 pm 15:53 Mostly Sunny 83 28.3 64 17.8 53 53 SSW 14 22 30.11 1020 10 16 N/A
4:53 pm 16:53 Partly Cloudy 82 27.8 64 17.8 55 55 S 13 20 30.09 1019 10 16 N/A
5:53 pm 17:53 Mostly Sunny 83 28.3 64 17.8 53 53 S 12 19 30.10 1019 10 16 N/A
6:53 pm 18:53 Sunny 81 27.2 65 18.3 58 58 S 8 13 30.09 1019 10 16 N/A
7:53 pm 19:53 Sunny 79 26.1 67 19.4 67 67 SSE 3 6 30.08 1019 10 16 N/A
8:53 pm 20:53 Sunny 74 23.3 67 19.4 79 79 N N/A 30.09 1019 10 16 N/A
9:53 pm 21:53 Clear 71 21.7 66 18.9 84 84 N N/A 30.10 1019 10 16 N/A
10:53 pm 22:53 Clear 68 20 65 18.3 90 90 N N/A 30.10 1019 10 16 N/A
11:53 pm 23:53 Clear 67 19.4 65 18.3 93 93 SSW 3 6 30.07 1018 10 16 N/A

Powered by AerisWeather